BCS348 EGNX-EBBR

Flight info

Callsign BCS348
Flight time 0h 56m
Altitude 29000
Route SAPCO UY53 DTY UM605 BENSU Q70 VABIK/N0447F230 Q70 KOK
Aircraft A306/H-SDE3FGHIRWY/LB1

Departure

Time 2026-05-08 07:56
Airport East Midlands Airport (EGNX)

Arrival

Time 2026-05-08 08:52
Airport Brussels Airport (EBBR)
Time Latitude Longitude Altitude Speed Heading
2026-05-08 07:30 52.82742 -1.34953 309 ft 0 kts 178°
2026-05-08 07:48 52.82745 -1.34954 281 ft 3 kts 178°
2026-05-08 07:48 52.82772 -1.34953 307 ft 4 kts 186°
2026-05-08 07:49 52.82798 -1.34945 307 ft 4 kts 199°
2026-05-08 07:49 52.82821 -1.34925 307 ft 4 kts 236°
2026-05-08 07:49 52.82826 -1.34907 305 ft 1 kts 268°
2026-05-08 07:52 52.82825 -1.34922 306 ft 4 kts 268°
2026-05-08 07:52 52.82824 -1.34997 308 ft 9 kts 267°
2026-05-08 07:52 52.82820 -1.35125 310 ft 9 kts 266°
2026-05-08 07:53 52.82819 -1.35211 309 ft 10 kts 276°
2026-05-08 07:53 52.82869 -1.35252 309 ft 8 kts 21°
2026-05-08 07:53 52.82894 -1.35163 312 ft 11 kts 82°
2026-05-08 07:53 52.82897 -1.35014 310 ft 15 kts 85°
2026-05-08 07:54 52.82943 -1.34937 312 ft 0 kts
2026-05-08 07:54 52.82954 -1.34937 314 ft 4 kts 359°
2026-05-08 07:54 52.83004 -1.34938 313 ft 10 kts 359°
2026-05-08 07:55 52.83062 -1.34870 313 ft 13 kts 81°
2026-05-08 07:55 52.83069 -1.34573 308 ft 53 kts 88°
2026-05-08 07:55 52.83087 -1.33526 315 ft 126 kts 89°
2026-05-08 07:55 52.83117 -1.31775 528 ft 166 kts 89°
2026-05-08 07:56 52.83132 -1.29676 955 ft 199 kts 92°
2026-05-08 07:56 52.83007 -1.27239 1497 ft 233 kts 99°
2026-05-08 07:56 52.82692 -1.24456 2211 ft 253 kts 109°
2026-05-08 07:56 52.81837 -1.21965 3466 ft 249 kts 130°
2026-05-08 07:57 52.80695 -1.19817 4666 ft 251 kts 134°
2026-05-08 07:57 52.79454 -1.17750 5819 ft 256 kts 141°
2026-05-08 07:57 52.77926 -1.16234 6955 ft 260 kts 160°
2026-05-08 07:57 52.76134 -1.15749 8039 ft 265 kts 184°
2026-05-08 07:58 52.74354 -1.16526 9156 ft 269 kts 208°
2026-05-08 07:58 52.72804 -1.18268 10222 ft 272 kts 219°
2026-05-08 07:58 52.71299 -1.20265 10825 ft 293 kts 220°
2026-05-08 07:58 52.69651 -1.22478 11196 ft 317 kts 220°
2026-05-08 07:59 52.67875 -1.24834 11558 ft 338 kts 220°
2026-05-08 07:59 52.65981 -1.27319 11917 ft 357 kts 219°
2026-05-08 07:59 52.64000 -1.29902 12459 ft 368 kts 219°
2026-05-08 07:59 52.61939 -1.32475 13135 ft 376 kts 215°
2026-05-08 08:00 52.59574 -1.34362 13866 ft 383 kts 199°
2026-05-08 08:00 52.56943 -1.35188 14578 ft 388 kts 188°
2026-05-08 08:00 52.54235 -1.35191 15292 ft 393 kts 175°
2026-05-08 08:00 52.51562 -1.34153 16030 ft 398 kts 164°
2026-05-08 08:01 52.48950 -1.32613 16777 ft 401 kts 160°
2026-05-08 08:01 52.46363 -1.30852 17483 ft 404 kts 159°
2026-05-08 08:01 52.43777 -1.29000 18162 ft 407 kts 158°
2026-05-08 08:01 52.41172 -1.27125 18790 ft 410 kts 158°
2026-05-08 08:02 52.38544 -1.25263 19309 ft 414 kts 159°
2026-05-08 08:02 52.35878 -1.23410 19795 ft 418 kts 159°
2026-05-08 08:02 52.33187 -1.21570 20277 ft 421 kts 159°
2026-05-08 08:02 52.30470 -1.19731 20782 ft 424 kts 159°
2026-05-08 08:03 52.27731 -1.17889 21235 ft 428 kts 159°
2026-05-08 08:03 52.24968 -1.16038 21662 ft 431 kts 159°
2026-05-08 08:03 52.22181 -1.14172 22158 ft 435 kts 159°
2026-05-08 08:03 52.19360 -1.12350 22594 ft 437 kts 161°
2026-05-08 08:04 52.16435 -1.10980 23037 ft 439 kts 167°
2026-05-08 08:04 52.13449 -1.09837 23457 ft 442 kts 168°
2026-05-08 08:04 52.10431 -1.08796 23826 ft 445 kts 169°
2026-05-08 08:04 52.07389 -1.07806 24139 ft 448 kts 170°
2026-05-08 08:05 52.05354 -1.07159 24338 ft 450 kts 170°
2026-05-08 08:05 52.02271 -1.06184 24625 ft 453 kts 170°
2026-05-08 08:05 51.99164 -1.05197 24908 ft 456 kts 170°
2026-05-08 08:05 51.95019 -1.03867 25307 ft 460 kts 170°
2026-05-08 08:06 51.91874 -1.02852 25562 ft 463 kts 170°
2026-05-08 08:06 51.88708 -1.01827 25843 ft 466 kts 169°
2026-05-08 08:06 51.85521 -1.00794 26105 ft 468 kts 169°
2026-05-08 08:06 51.83354 -1.00092 26269 ft 470 kts 169°
2026-05-08 08:07 51.80143 -0.99053 26518 ft 473 kts 170°
2026-05-08 08:07 51.76910 -0.98009 26757 ft 475 kts 170°
2026-05-08 08:07 51.73659 -0.96961 27000 ft 477 kts 170°
2026-05-08 08:07 51.70419 -0.95923 27588 ft 470 kts 170°
2026-05-08 08:08 51.67238 -0.94882 28189 ft 465 kts 168°
2026-05-08 08:08 51.64137 -0.93362 28548 ft 467 kts 160°
2026-05-08 08:08 51.61218 -0.91052 28910 ft 469 kts 150°
2026-05-08 08:08 51.58596 -0.87941 29072 ft 470 kts 140°
2026-05-08 08:09 51.56408 -0.84097 29078 ft 463 kts 128°
2026-05-08 08:09 51.54747 -0.79688 29087 ft 461 kts 117°
2026-05-08 08:09 51.53420 -0.75017 29091 ft 460 kts 114°
2026-05-08 08:10 51.51023 -0.65565 29099 ft 460 kts 112°
2026-05-08 08:10 51.48651 -0.56024 29103 ft 460 kts 112°
2026-05-08 08:11 51.46225 -0.46517 29099 ft 460 kts 113°
2026-05-08 08:11 51.43762 -0.37039 29103 ft 460 kts 113°
2026-05-08 08:12 51.41287 -0.27587 29100 ft 460 kts 114°
2026-05-08 08:12 51.38799 -0.18121 29095 ft 460 kts 114°
2026-05-08 08:13 51.36310 -0.08683 29090 ft 460 kts 114°
2026-05-08 08:13 51.33895 0.00806 29097 ft 461 kts 109°
2026-05-08 08:14 51.32742 0.10845 29029 ft 459 kts 97°
2026-05-08 08:14 51.32205 0.21011 29001 ft 459 kts 95°
2026-05-08 08:15 51.31767 0.31188 28976 ft 459 kts 95°
2026-05-08 08:15 51.31307 0.41370 28965 ft 459 kts 96°
2026-05-08 08:16 51.30817 0.51536 28969 ft 459 kts 96°
2026-05-08 08:16 51.30323 0.61701 28989 ft 458 kts 96°
2026-05-08 08:17 51.29939 0.71866 29018 ft 458 kts 95°
2026-05-08 08:17 51.29588 0.82033 29049 ft 458 kts 95°
2026-05-08 08:18 51.29221 0.92196 29086 ft 458 kts 95°
2026-05-08 08:18 51.28836 1.02359 29106 ft 459 kts 95°
2026-05-08 08:19 51.28438 1.12532 29103 ft 459 kts 95°
2026-05-08 08:19 51.28032 1.22703 29113 ft 459 kts 95°
2026-05-08 08:20 51.27616 1.32870 29111 ft 459 kts 95°
2026-05-08 08:20 51.27191 1.43038 29097 ft 459 kts 95°
2026-05-08 08:21 51.26759 1.53200 29110 ft 459 kts 95°
2026-05-08 08:21 51.26317 1.63364 29108 ft 459 kts 95°
2026-05-08 08:22 51.25867 1.73523 29102 ft 458 kts 96°
2026-05-08 08:22 51.25409 1.83660 29102 ft 458 kts 96°
2026-05-08 08:23 51.24942 1.93793 29102 ft 458 kts 96°
2026-05-08 08:23 51.24467 2.03926 29104 ft 458 kts 96°
2026-05-08 08:24 51.23990 2.13952 28902 ft 449 kts 96°
2026-05-08 08:24 51.23756 2.18842 28346 ft 437 kts 96°
2026-05-08 08:24 51.23523 2.23652 27623 ft 432 kts 96°
2026-05-08 08:24 51.23291 2.28381 27012 ft 424 kts 96°
2026-05-08 08:25 51.23060 2.33033 26419 ft 417 kts 96°
2026-05-08 08:25 51.22584 2.37569 25842 ft 413 kts 107°
2026-05-08 08:25 51.21566 2.41815 25268 ft 408 kts 119°
2026-05-08 08:25 51.20015 2.45562 24713 ft 403 kts 130°
2026-05-08 08:26 51.18239 2.48989 24134 ft 399 kts 132°
2026-05-08 08:26 51.16436 2.52334 23542 ft 396 kts 133°
2026-05-08 08:26 51.14643 2.55638 22953 ft 392 kts 133°
2026-05-08 08:26 51.12867 2.58912 22393 ft 389 kts 133°
2026-05-08 08:27 51.11120 2.62174 21812 ft 386 kts 130°
2026-05-08 08:27 51.09694 2.65770 21253 ft 385 kts 117°
2026-05-08 08:27 51.08886 2.69819 20713 ft 384 kts 104°
2026-05-08 08:27 51.08367 2.73965 20124 ft 381 kts 102°
2026-05-08 08:28 51.07890 2.78092 19542 ft 378 kts 102°
2026-05-08 08:28 51.07415 2.82174 18987 ft 374 kts 102°
2026-05-08 08:28 51.06936 2.86220 18406 ft 371 kts 102°
2026-05-08 08:28 51.06456 2.90225 17759 ft 368 kts 102°
2026-05-08 08:29 51.05976 2.94201 17185 ft 364 kts 102°
2026-05-08 08:29 51.05497 2.98146 16631 ft 363 kts 102°
2026-05-08 08:29 51.05025 3.02018 16060 ft 360 kts 102°
2026-05-08 08:29 51.04549 3.05906 15481 ft 358 kts 102°
2026-05-08 08:30 51.04074 3.09781 14946 ft 356 kts 102°
2026-05-08 08:30 51.03600 3.13625 14371 ft 354 kts 102°
2026-05-08 08:30 51.02657 3.21248 13161 ft 348 kts 102°
2026-05-08 08:31 51.02190 3.25000 12610 ft 344 kts 102°
2026-05-08 08:31 51.01728 3.28706 12064 ft 341 kts 102°
2026-05-08 08:31 51.01268 3.32386 11517 ft 338 kts 102°
2026-05-08 08:31 51.00811 3.36030 10978 ft 334 kts 102°
2026-05-08 08:32 51.00359 3.39622 10567 ft 327 kts 102°
2026-05-08 08:32 50.99927 3.43059 10472 ft 309 kts 102°
2026-05-08 08:32 50.99518 3.46310 10375 ft 292 kts 102°
2026-05-08 08:32 50.99128 3.49400 10275 ft 280 kts 102°
2026-05-08 08:33 50.98750 3.52380 10147 ft 271 kts 102°
2026-05-08 08:33 50.98381 3.55283 9914 ft 269 kts 102°
2026-05-08 08:33 50.98008 3.58207 9401 ft 272 kts 103°
2026-05-08 08:33 50.97631 3.61158 8974 ft 273 kts 102°
2026-05-08 08:34 50.97253 3.64112 8573 ft 273 kts 103°
2026-05-08 08:34 50.96874 3.67063 8170 ft 273 kts 103°
2026-05-08 08:34 50.96496 3.70001 7756 ft 271 kts 103°
2026-05-08 08:34 50.96119 3.72918 7344 ft 269 kts 102°
2026-05-08 08:35 50.95745 3.75820 6934 ft 267 kts 102°
2026-05-08 08:35 50.95374 3.78693 6553 ft 264 kts 102°
2026-05-08 08:35 50.95006 3.81531 6149 ft 262 kts 102°
2026-05-08 08:35 50.94640 3.84354 5757 ft 260 kts 102°
2026-05-08 08:36 50.94277 3.87144 5387 ft 257 kts 102°
2026-05-08 08:36 50.93915 3.89930 4831 ft 260 kts 102°
2026-05-08 08:36 50.93546 3.92756 4305 ft 262 kts 102°
2026-05-08 08:36 50.93181 3.95540 4108 ft 251 kts 102°
2026-05-08 08:37 50.92837 3.98162 4093 ft 236 kts 102°
2026-05-08 08:37 50.92352 4.00693 4102 ft 237 kts 116°
2026-05-08 08:37 50.91350 4.02640 4092 ft 223 kts 143°
2026-05-08 08:37 50.89992 4.03614 4093 ft 211 kts 168°
2026-05-08 08:38 50.88541 4.03591 4098 ft 210 kts 192°
2026-05-08 08:38 50.87220 4.02609 4103 ft 212 kts 217°
2026-05-08 08:38 50.86276 4.00826 4099 ft 214 kts 242°
2026-05-08 08:38 50.85892 3.98560 4102 ft 215 kts 267°
2026-05-08 08:39 50.86026 3.96206 4099 ft 215 kts 279°
2026-05-08 08:39 50.86296 3.93873 4017 ft 216 kts 281°
2026-05-08 08:39 50.86577 3.91539 4002 ft 216 kts 281°
2026-05-08 08:39 50.86852 3.89203 3999 ft 216 kts 280°
2026-05-08 08:40 50.87141 3.86817 4025 ft 236 kts 283°
2026-05-08 08:40 50.87806 3.84407 3994 ft 235 kts 308°
2026-05-08 08:40 50.89015 3.82810 3981 ft 221 kts 335°
2026-05-08 08:40 50.90460 3.82255 3994 ft 212 kts
2026-05-08 08:41 50.91883 3.82697 3999 ft 209 kts 25°
2026-05-08 08:41 50.93038 3.83992 4001 ft 207 kts 49°
2026-05-08 08:41 50.93763 3.85932 4002 ft 205 kts 73°
2026-05-08 08:41 50.93935 3.88160 4002 ft 204 kts 94°
2026-05-08 08:42 50.93738 3.90395 4008 ft 205 kts 100°
2026-05-08 08:42 50.93474 3.92615 4003 ft 205 kts 101°
2026-05-08 08:42 50.93210 3.94836 4001 ft 206 kts 101°
2026-05-08 08:42 50.92951 3.97069 4009 ft 205 kts 100°
2026-05-08 08:43 50.92630 3.99270 4004 ft 205 kts 114°
2026-05-08 08:43 50.91690 4.00914 3889 ft 203 kts 144°
2026-05-08 08:43 50.90487 4.02122 3600 ft 207 kts 148°
2026-05-08 08:43 50.89251 4.03329 3306 ft 210 kts 147°
2026-05-08 08:44 50.88026 4.04575 3058 ft 209 kts 145°
2026-05-08 08:44 50.86834 4.05844 2991 ft 205 kts 144°
2026-05-08 08:44 50.85656 4.07116 3014 ft 205 kts 144°
2026-05-08 08:44 50.84483 4.08396 2997 ft 205 kts 144°
2026-05-08 08:45 50.83313 4.09684 2998 ft 205 kts 144°
2026-05-08 08:45 50.82152 4.10966 2986 ft 200 kts 143°
2026-05-08 08:45 50.81178 4.12449 2967 ft 190 kts 118°
2026-05-08 08:45 50.80946 4.14406 2982 ft 183 kts 79°
2026-05-08 08:46 50.81359 4.16291 3039 ft 182 kts 67°
2026-05-08 08:46 50.81891 4.18108 2989 ft 183 kts 65°
2026-05-08 08:46 50.82437 4.19929 2985 ft 180 kts 65°
2026-05-08 08:46 50.82941 4.21643 2975 ft 163 kts 66°
2026-05-08 08:47 50.83390 4.23169 2962 ft 144 kts 66°
2026-05-08 08:47 50.83805 4.24586 2980 ft 145 kts 66°
2026-05-08 08:47 50.84249 4.26107 2922 ft 157 kts 66°
2026-05-08 08:47 50.84707 4.27678 2623 ft 158 kts 66°
2026-05-08 08:48 50.85167 4.29255 2371 ft 159 kts 66°
2026-05-08 08:48 50.85624 4.30829 2163 ft 152 kts 66°
2026-05-08 08:48 50.86049 4.32292 1975 ft 141 kts 65°
2026-05-08 08:48 50.86447 4.33666 1758 ft 133 kts 66°
2026-05-08 08:49 50.86812 4.34922 1596 ft 120 kts 66°
2026-05-08 08:49 50.87159 4.36118 1456 ft 119 kts 65°
2026-05-08 08:49 50.87503 4.37308 1311 ft 119 kts 66°
2026-05-08 08:49 50.87846 4.38498 1131 ft 119 kts 66°
2026-05-08 08:50 50.88187 4.39683 994 ft 119 kts 66°
2026-05-08 08:50 50.88522 4.40858 876 ft 119 kts 65°
2026-05-08 08:50 50.88879 4.42041 767 ft 119 kts 64°
2026-05-08 08:50 50.89219 4.43228 596 ft 118 kts 66°
2026-05-08 08:51 50.89556 4.44401 380 ft 116 kts 65°
2026-05-08 08:51 50.89896 4.45566 232 ft 117 kts 66°
2026-05-08 08:51 50.90226 4.46729 137 ft 110 kts 65°
2026-05-08 08:51 50.90474 4.47578 126 ft 55 kts 65°
2026-05-08 08:52 50.90619 4.48095 124 ft 42 kts 63°
2026-05-08 08:52 50.90722 4.48206 123 ft 15 kts 339°
2026-05-08 08:52 50.90813 4.48154 122 ft 9 kts 340°
2026-05-08 08:52 50.90838 4.48086 127 ft 7 kts 256°
2026-05-08 08:53 50.90825 4.48039 123 ft 7 kts 242°
2026-05-08 08:53 50.90799 4.47972 125 ft 7 kts 239°
2026-05-08 08:53 50.90774 4.47904 123 ft 7 kts 239°
2026-05-08 08:53 50.90748 4.47828 124 ft 11 kts 246°
2026-05-08 08:54 50.90711 4.47651 125 ft 22 kts 245°
2026-05-08 08:54 50.90626 4.47423 130 ft 26 kts 242°
2026-05-08 08:54 50.90564 4.47244 128 ft 13 kts 239°
2026-05-08 08:54 50.90532 4.47153 124 ft 9 kts 246°
2026-05-08 08:55 50.90530 4.47143 126 ft 2 kts 248°
2026-05-08 08:55 50.90515 4.47105 127 ft 2 kts 205°
2026-05-08 08:55 50.90507 4.47129 123 ft 3 kts 84°
2026-05-08 08:55 50.90557 4.47224 129 ft 19 kts 56°
2026-05-08 08:56 50.90592 4.47356 126 ft 7 kts 110°
2026-05-08 08:56 50.90582 4.47373 127 ft 0 kts 144°
2026-05-08 08:57 50.90516 4.47437 126 ft 23 kts 150°
2026-05-08 08:57 50.90387 4.47279 126 ft 32 kts 246°
2026-05-08 08:57 50.90293 4.46941 129 ft 34 kts 252°
2026-05-08 08:58 50.90332 4.46596 136 ft 24 kts 294°
2026-05-08 08:58 50.90352 4.46368 138 ft 21 kts 250°
2026-05-08 08:58 50.90355 4.46286 139 ft 5 kts 332°
2026-05-08 08:58 50.90395 4.46256 139 ft 7 kts 334°
2026-05-08 08:59 50.90416 4.46241 139 ft 0 kts 337°